Regional Weather Roundup
Issued by NWS

Home | Current Version | Previous Version | Text Only | Print | Product List | Glossary On
Versions: 1 2 3 4 5 6 7 8 9 10 11 12 13 14 15 16 17 18 19 20 21 22 23 24 25 26 27 28 29 30 31 32 33 34 35 36 37 38 39 40 41 42 43 44 45 46 47 48 49 50
000
ASUS46 KSEW 041510
RWRWA

WASHINGTON REGIONAL WEATHER ROUNDUP
NATIONAL WEATHER SERVICE SEATTLE WA
800 AM PDT SAT JUL 04 2015

NOTE:"FAIR" INDICATES FEW OR NO CLOUDS BELOW 12,000 FEET WITH NO
SIGNIFICANT WEATHER AND/OR OBSTRUCTIONS TO VISIBILITY.

WAZ505-507>509-041600-
SEATTLE, TACOMA, EVERETT, AND VICINITY

CITY           SKY/WX    TMP DP  RH WIND       PRES   REMARKS
EVERETT        SUNNY     68  52  56 NW3       29.91R
BOEING FIELD   SUNNY     69  54  58 CALM      29.89S
RENTON         SUNNY     66  54  65 SE3       29.89S
SEATAC AIRPORT MOSUNNY   64  54  69 S3        29.91R
JBLM-MCCHORD   SUNNY     63  55  74 W3        29.91R
PUYALLUP       FAIR      66  55  68 CALM      29.91S
BREMERTON      SUNNY     64  55  72 CALM      29.93S
JBLM-FT LEWIS  SUNNY     63  54  70 SE5       29.90S
TACOMA NARROWS SUNNY     61  53  75 S6        29.91S
$$

WAZ001-503-506-510-514-515-041600-
NORTH INTERIOR

CITY           SKY/WX    TMP DP  RH WIND       PRES   REMARKS
BELLINGHAM     SUNNY     68  57  68 CALM      29.88R
FRIDAY HARBOR  SUNNY     63  54  72 E3        29.90R
EASTSOUND      SUNNY     64  54  68 N7        29.88R
PORT ANGELES   SUNNY     66  54  65 CALM      29.89S
PORT TOWNSEND  FAIR      68  57  68 CALM      29.89S
NAS WHIDBEY    SUNNY     62  53  72 W3        29.93R
ARLINGTON      SUNNY     64  52  63 CALM      29.90S
BURLINGTON     SUNNY     70  52  52 NW5       29.89R
$$

WAZ020-022-039-040-504-511-512-041600-
SOUTHWEST INTERIOR

CITY           SKY/WX    TMP DP  RH WIND       PRES   REMARKS
SHELTON        MOSUNNY   58  54  86 SW5       29.89S
OLYMPIA        SUNNY     60  53  77 S3        29.91S
CHEHALIS       FAIR      64  55  72 CALM      29.91S HAZE
KELSO          CLOUDY    61  52  72 CALM      29.95R
VANCOUVER      SUNNY     64  52  64 N3        29.89S
SCAPPOOSE, OR  SUNNY     63  53  70 CALM      29.89S
PORTLAND, OR   MOSUNNY   65  53  65 NW3       29.90S
$$

WAZ021-516-517-041600-
WASHINGTON COAST

CITY           SKY/WX    TMP DP  RH WIND       PRES   REMARKS
FORKS          SUNNY     60  56  86 VRB3      29.89R FOG
HOQUIAM        CLOUDY    57  56  96 E6        29.91S FOG
ASTORIA, OR    PTSUNNY   59  55  87 SE3       29.90S
$$

WAZ019-023-024-040-518-519-041600-
CASCADE MOUNTAINS AND COLUMBIA GORGE

CITY           SKY/WX    TMP DP  RH WIND       PRES   REMARKS
TROUTDALE, OR  SUNNY     65  54  67 CALM      29.88S
THE DALLES, OR SUNNY     76  53  44 CALM      29.80R
$$

WAZ026-027-041>044-520-521-041600-
EAST SLOPES

CITY           SKY/WX    TMP DP  RH WIND       PRES   REMARKS
OMAK           SUNNY     83  45  26 N14       29.81S
WENATCHEE      SUNNY     83  44  25 NW14      29.80S
ELLENSBURG     SUNNY     81  46  29 NW20      29.83S
YAKIMA         SUNNY     83  49  30 NW10G16   29.81R
$$

WAZ028-034-035-041600-
COLUMBIA BASIN

CITY           SKY/WX    TMP DP  RH WIND       PRES   REMARKS
EPHRATA        SUNNY     87  47  24 N13       29.77R
MOSES LAKE     SUNNY     83  48  29 N6        29.78R
PASCO          SUNNY     83  54  36 S6        29.76S
HERMISTON, OR  SUNNY     82  47  29 VRB3      29.79R
$$

WAZ036>038-041600-
NORTHEAST WASHINGTON

CITY           SKY/WX    TMP DP  RH WIND       PRES   REMARKS
SPOKANE GEIGER MOSUNNY   72  46  39 SE8       29.84S
SPOKANE FELTS  SUNNY     78  48  34 VRB5      29.83S
FAIRCHILD AFB  SUNNY     73  46  38 S7        29.84S
COEURDALENE,ID SUNNY     75  54  46 S9        29.84S
DEER PARK      SUNNY     73  47  39 SE6       29.84S
$$

WAZ029>033-041600-
SOUTHEAST WASHINGTON

CITY           SKY/WX    TMP DP  RH WIND       PRES   REMARKS
PULLMAN        SUNNY     75  48  38 S3        29.89S
LEWISTON, ID   MOSUNNY   75  50  41 N3        29.82S
WALLA WALLA    SUNNY     85  46  25 SW13      29.82R
PENDLETON, OR  SUNNY     78  44  29 S7        29.84S
$$


USA.gov is the U.S. government's official web portal to all federal, state and local government web resources and services.